Theta_e
304 304 304 304 304 304 305 305 305 304 303 298 295 296 290 288 290 299 301 301 303 292 282 286 287 285 286 292 293 294 294 291 291 290 290 289 289 288 287 287 285 286 286 285 284 286 284 286 284 286 290 288 289 290 291 290 292 288 287 288 290 302 279 279 281 283 285 288 288 289 288 287 285 283 281 281 282 283 278 275 277 276 276 275 273 269 274
304 304 304 304 304 304 305 305 305 305 303 299 296 288 287 289 289 293 300 302 297 288 282 281 278 285 289 289 290 291 294 290 289 289 289 287 286 285 286 287 288 287 287 286 285 288 281 286 286 286 289 289 295 292 294 294 293 290 291 287 291 284 282 282 277 276 279 282 284 282 284 285 282 283 281 281 280 281 279 278 277 276 278 276 276 271 273
303 303 304 304 304 304 304 305 305 304 304 301 291 290 289 289 291 293 296 301 298 288 287 286 279 283 284 286 286 286 288 291 291 290 287 289 287 286 286 288 288 287 287 287 287 287 284 283 287 287 287 288 292 294 296 296 293 298 298 304 292 285 281 279 275 272 269 270 271 273 278 280 281 282 281 281 280 280 280 279 274 274 276 276 272 269 276
303 303 303 304 304 304 304 304 304 304 304 302 292 289 288 286 280 287 289 293 293 292 293 290 287 282 285 281 285 286 284 289 291 290 289 290 289 286 286 286 287 285 285 285 284 284 287 284 284 283 283 286 290 291 294 293 294 305 304 298 290 281 282 281 278 280 279 280 279 281 282 280 279 282 281 282 280 280 280 276 271 273 274 273 276 278 279
303 303 303 303 304 304 304 304 304 304 303 303 289 288 290 287 283 280 282 290 290 288 290 288 288 283 285 280 285 283 284 286 288 292 287 290 289 288 286 285 283 282 284 283 284 284 283 285 283 283 283 284 288 290 290 292 297 304 299 297 283 281 280 282 281 279 280 279 281 283 282 280 280 280 281 280 279 279 277 274 279 279 280 274 278 278 276
303 303 303 303 304 304 304 304 304 303 302 303 292 286 287 282 283 286 289 284 282 285 286 289 287 288 288 283 286 283 284 284 282 288 290 290 289 284 285 285 284 282 284 285 280 282 282 283 279 283 284 282 285 286 289 289 294 299 295 292 287 282 278 283 281 280 281 281 282 284 283 282 280 280 281 281 280 280 279 279 279 278 273 275 277 278 276
303 303 303 303 304 304 304 304 304 303 301 301 291 287 285 285 284 287 289 283 286 289 288 289 289 287 289 284 285 283 284 283 285 285 285 286 286 286 278 282 283 283 284 281 280 281 279 279 281 282 282 282 281 281 283 287 288 290 292 289 287 285 281 283 283 281 282 282 282 284 284 282 282 281 280 281 281 279 279 278 278 278 277 278 279 278 277
302 302 303 303 304 304 305 304 304 303 301 298 294 289 284 282 282 282 286 285 285 287 289 289 288 285 288 283 284 285 284 283 285 286 284 279 283 287 282 282 283 283 283 282 280 282 284 283 280 282 281 280 282 281 283 283 285 287 287 289 289 287 281 287 283 281 281 282 284 284 284 283 281 281 281 281 281 281 281 281 280 282 280 278 279 279 277
302 302 303 303 303 304 304 305 304 302 301 293 289 288 290 287 286 287 282 281 283 287 286 286 285 283 284 284 285 286 285 284 287 284 286 284 282 283 282 284 284 283 283 283 283 285 285 285 284 284 283 280 285 282 283 284 283 283 284 286 286 286 281 283 282 279 279 282 283 283 284 283 281 281 281 280 280 280 280 279 281 278 279 278 277 276 273
302 302 302 303 303 304 304 304 305 303 300 291 287 287 290 289 288 285 279 278 284 280 283 285 284 281 283 285 285 284 285 287 287 280 286 287 287 285 285 285 283 282 283 282 283 285 285 286 287 287 287 286 285 285 285 285 284 281 282 283 283 282 282 279 278 278 275 281 282 282 283 282 280 278 280 280 280 280 281 281 282 281 281 280 278 277 278
302 302 302 303 303 304 304 304 305 303 299 292 290 287 289 288 286 286 280 279 279 280 279 281 282 284 286 287 285 288 286 287 287 283 281 287 286 288 286 285 283 280 282 285 288 288 288 288 288 288 286 286 285 284 284 285 284 283 284 280 280 281 284 279 280 275 275 279 279 281 279 270 272 280 284 284 280 281 280 279 280 281 282 278 279 281 281
301 302 302 302 303 303 304 304 305 305 301 295 292 289 291 290 284 280 274 278 276 279 279 278 280 283 283 284 285 284 284 284 285 288 285 286 287 287 287 285 283 279 286 290 289 288 289 289 288 288 287 285 284 285 284 283 284 284 283 285 279 277 277 276 277 273 275 277 278 274 268 270 279 282 283 285 284 283 280 280 281 282 282 282 282 282 282
301 301 302 302 303 303 304 304 305 304 304 296 291 290 292 292 286 280 278 278 275 278 275 279 281 282 283 284 284 284 285 285 286 287 287 285 285 286 287 285 284 286 290 288 288 287 284 280 281 280 281 283 282 284 285 285 285 285 283 282 281 276 275 274 273 270 272 271 270 268 265 277 280 281 282 284 283 282 282 281 281 281 280 281 280 282 282
301 301 301 302 302 303 304 304 305 305 304 301 292 291 293 290 288 283 275 275 278 279 279 277 279 280 281 281 281 282 284 284 284 284 283 285 284 284 286 288 288 290 290 288 286 284 281 279 276 278 281 279 279 280 283 283 284 284 284 283 282 280 279 274 273 275 272 267 263 267 277 277 278 278 280 280 279 279 277 274 278 281 281 281 280 281 281
301 301 301 302 302 303 303 304 305 305 304 302 292 291 292 293 288 287 282 280 277 280 278 275 278 280 279 280 280 279 279 280 281 281 283 284 284 286 287 289 291 289 288 286 282 281 278 277 276 274 275 276 273 276 280 281 283 285 284 284 283 281 281 277 277 273 270 269 266 265 263 263 274 277 280 281 282 282 280 277 276 282 280 282 281 280 280
300 301 301 301 302 303 303 304 304 304 304 303 293 290 291 293 288 286 281 275 277 274 279 281 282 281 279 279 280 280 277 273 278 278 279 280 282 285 287 288 290 289 287 284 281 280 280 278 272 269 270 272 278 277 276 281 280 283 284 285 285 283 280 279 280 273 270 268 268 265 266 267 273 279 280 281 281 281 279 276 275 280 279 281 281 280 280
300 300 301 301 302 303 303 304 304 304 304 303 293 288 292 294 291 287 280 281 280 277 278 282 282 280 277 277 280 277 279 276 279 274 274 278 280 282 285 288 287 286 284 279 280 278 277 276 278 275 278 279 275 274 278 278 278 277 282 283 282 282 278 275 273 270 270 268 267 267 263 269 277 278 278 280 281 281 279 269 268 278 279 280 280 279 279
300 300 301 301 301 302 303 304 304 305 304 304 294 289 290 294 292 287 283 279 276 278 282 284 283 279 280 280 278 281 279 278 278 277 277 278 278 280 283 284 283 285 284 278 277 273 273 272 271 271 272 280 280 277 270 277 273 274 277 278 277 275 275 275 271 268 271 271 266 266 268 275 278 279 281 280 282 280 272 268 270 279 279 280 279 279 279
300 300 300 301 301 302 303 303 304 304 305 304 296 287 289 293 294 288 284 281 279 278 282 283 285 283 285 285 282 282 283 282 280 275 275 274 279 283 283 283 284 279 282 274 276 274 271 272 277 277 272 275 279 273 278 272 273 277 277 275 274 272 271 273 272 271 268 265 268 267 267 272 280 280 282 282 281 272 268 273 278 279 280 281 280 280 280
300 300 300 301 301 302 302 303 304 304 304 304 296 287 290 290 292 291 284 280 277 280 281 284 285 284 285 284 281 280 280 280 278 278 275 273 281 281 276 274 279 281 278 277 272 276 269 271 273 276 271 275 277 281 273 275 278 277 277 277 271 274 269 271 269 270 268 266 266 267 268 275 281 281 279 280 273 271 279 280 281 281 280 281 281 281 282
300 300 300 301 301 302 302 303 304 304 304 304 299 287 289 290 293 292 286 283 279 276 280 284 286 285 284 284 284 284 282 281 282 281 281 279 281 275 268 270 277 276 275 274 271 271 273 269 274 273 277 275 276 275 271 270 275 280 279 278 277 280 271 271 270 276 267 266 265 267 272 277 282 280 273 279 280 282 281 281 281 284 282 282 281 281 282
300 300 300 301 301 302 302 303 303 304 304 304 300 288 287 292 292 294 292 286 281 280 283 286 287 285 287 287 286 286 286 286 288 287 283 279 281 280 278 278 280 280 281 277 275 272 276 276 276 270 271 272 276 271 274 265 268 275 276 277 270 279 277 277 272 279 273 272 274 278 281 281 284 284 283 284 286 287 289 287 286 284 285 287 284 285 285
300 300 300 300 301 301 302 302 303 303 304 304 298 288 287 290 292 294 285 284 284 287 286 283 282 284 288 289 289 287 286 288 288 285 281 280 278 279 280 279 280 283 282 280 279 277 278 276 272 276 272 276 273 270 274 270 267 274 270 277 275 280 280 280 279 277 282 283 283 284 284 285 284 287 288 287 287 288 289 287 285 286 287 286 285 286 286
300 300 300 300 300 301 302 303 303 303 303 304 300 288 288 289 291 290 287 284 279 282 282 283 281 278 280 284 287 286 289 289 291 288 286 283 276 275 277 280 283 280 278 281 278 281 276 275 278 276 271 276 274 268 267 269 269 276 272 273 275 277 278 277 276 280 276 272 282 282 283 284 285 285 287 288 288 287 287 286 285 286 285 285 285 285 284
299 300 300 300 300 301 302 302 303 303 303 303 300 294 292 290 290 289 286 284 282 276 276 276 276 286 288 288 287 285 287 288 290 288 286 284 283 279 280 284 286 284 283 283 280 277 273 274 277 272 269 278 276 269 274 269 272 275 266 271 274 276 278 276 276 274 268 269 279 281 283 282 283 283 284 284 285 286 285 285 285 284 285 285 285 283 283
299 299 299 300 300 301 302 302 303 303 303 303 300 288 287 287 290 289 289 287 280 275 277 276 279 285 286 288 288 288 287 286 286 288 289 287 286 286 286 286 285 283 282 281 277 276 274 272 269 272 271 274 277 271 273 276 275 275 273 273 277 276 280 269 276 274 276 277 278 277 279 279 280 281 281 282 282 283 284 284 284 284 284 283 283 283 282
299 299 299 300 300 301 301 302 303 302 303 302 295 288 288 289 288 292 288 288 283 278 276 277 278 283 287 286 289 287 286 286 285 284 286 286 286 285 284 282 282 279 281 279 278 274 274 272 271 276 277 277 278 277 277 275 276 271 271 277 277 277 273 275 274 270 268 271 276 278 272 270 278 280 280 280 280 281 282 281 283 283 282 281 281 280 281
298 299 299 299 300 301 301 302 302 302 302 300 294 290 288 288 289 290 287 285 285 277 276 274 276 283 285 286 288 285 286 288 284 285 283 284 284 283 282 281 281 281 279 279 277 276 272 273 277 274 272 276 276 273 276 275 275 273 274 277 278 277 277 272 263 266 267 273 278 280 277 275 275 278 280 280 280 280 281 281 280 280 280 280 280 280 281
298 299 299 299 300 301 301 302 302 302 302 297 286 288 287 289 288 292 293 290 285 281 276 280 281 281 278 283 288 285 285 286 286 284 284 283 284 283 282 282 281 279 279 276 276 274 275 275 274 277 277 278 274 271 274 268 264 268 273 277 277 279 278 278 278 275 279 277 278 278 278 279 281 279 280 281 280 281 281 281 280 280 280 280 280 281 282
299 299 299 300 300 301 302 302 302 302 301 286 285 279 279 287 285 291 294 294 286 281 278 275 275 280 282 285 285 284 285 287 284 285 285 283 283 282 281 281 283 284 281 278 276 275 274 276 274 276 277 281 276 269 264 269 267 272 275 275 277 278 279 280 278 279 280 280 278 279 279 278 279 280 281 280 283 282 280 280 281 281 282 283 284 283 281
300 300 300 300 301 302 302 302 302 303 299 282 279 276 273 275 284 288 296 292 287 285 278 277 278 278 279 284 283 285 284 286 285 284 285 284 283 283 283 282 281 283 278 277 277 276 274 274 274 277 278 283 274 268 270 270 268 273 277 277 279 280 280 280 279 278 280 280 279 279 280 280 281 280 281 282 282 283 284 284 286 287 285 285 283 281 280
300 300 300 301 301 302 302 303 303 302 290 288 283 280 279 282 285 287 298 296 291 287 279 275 274 274 274 279 283 286 286 285 284 282 281 284 283 282 281 282 280 281 283 275 276 275 276 272 273 276 278 282 276 268 273 267 265 271 275 278 278 278 278 279 281 281 280 280 281 280 280 281 279 280 281 281 281 280 280 281 281 282 288 285 281 280 280
300 300 301 301 302 302 303 303 303 301 294 292 297 299 299 300 300 299 299 290 284 277 276 274 273 275 274 280 283 285 286 281 279 280 282 282 283 280 279 281 279 281 288 280 275 276 272 271 273 274 278 278 272 271 274 266 270 274 276 281 279 278 279 280 280 280 280 280 280 278 276 278 280 280 280 280 280 281 280 281 281 279 279 281 280 281 280
300 300 301 301 302 302 303 303 302 301 295 288 288 290 292 299 296 297 288 287 284 282 277 276 274 274 274 278 281 283 285 282 279 278 277 282 282 280 278 279 280 278 276 278 276 276 275 276 274 272 276 274 271 270 268 272 275 275 275 278 278 279 279 281 280 280 280 279 280 279 279 278 279 280 280 281 281 282 282 280 280 280 280 279 279 280 280
300 301 301 301 302 303 303 299 288 290 287 287 286 285 287 300 301 300 294 286 277 275 275 277 275 271 271 270 266 274 282 282 279 279 278 279 281 281 279 275 273 275 277 280 272 272 271 274 274 274 270 271 272 270 268 273 276 276 277 278 278 279 279 280 280 280 279 279 281 281 280 280 282 281 281 281 280 280 280 281 280 280 280 279 280 280 279
300 301 301 302 302 299 292 295 289 286 283 284 286 295 300 302 300 288 287 286 284 274 271 273 274 273 271 269 269 277 284 283 280 279 278 277 279 279 278 275 273 274 279 273 272 273 272 279 276 271 266 270 267 270 275 276 276 276 278 279 280 281 281 281 279 279 279 279 280 281 280 280 281 281 281 280 280 280 279 280 280 280 280 279 281 281 280
300 300 301 298 290 291 284 285 288 289 287 291 296 301 301 299 293 291 289 287 288 285 279 270 273 274 276 271 270 273 279 273 278 275 276 277 276 274 273 271 271 277 274 268 267 272 274 281 271 268 269 267 269 275 277 278 277 277 278 280 281 281 280 279 278 280 280 280 279 280 279 280 280 280 280 281 280 279 280 280 280 280 280 281 281 281 282
299 298 289 287 284 281 282 283 286 291 299 299 299 290 287 285 280 280 282 280 282 287 276 278 273 276 278 277 273 279 279 274 277 275 271 273 275 274 273 273 274 277 268 267 270 278 271 267 270 269 266 273 276 277 277 277 278 277 279 281 283 283 281 278 281 281 280 280 279 279 280 280 280 279 280 280 280 280 278 280 280 281 280 281 282 282 282
295 288 285 282 282 280 281 286 293 299 295 292 286 284 282 278 278 278 277 278 277 278 276 276 276 277 277 277 275 281 282 276 271 273 273 276 274 270 272 269 272 271 266 266 270 278 270 264 262 265 266 271 276 277 278 278 278 279 281 282 283 282 281 280 282 282 281 280 280 279 281 280 280 281 280 280 280 279 279 279 280 281 280 281 281 281 281
287 285 281 279 281 283 289 292 297 293 288 283 278 278 278 278 277 276 276 275 276 275 276 276 277 278 279 279 277 276 282 280 274 271 270 272 280 272 273 271 271 270 264 263 268 274 270 267 263 264 266 268 275 277 279 279 279 280 280 280 281 281 281 282 282 280 281 280 280 280 279 280 281 281 281 280 280 278 279 280 281 280 279 280 280 280 280
285 283 281 280 283 285 288 292 289 282 280 277 276 275 274 275 276 276 276 270 270 273 278 277 278 279 280 278 279 274 281 282 278 276 275 273 277 277 270 269 272 269 264 263 268 269 265 265 261 264 267 270 276 278 278 280 279 281 280 280 280 281 281 280 281 280 280 281 281 279 279 279 280 280 282 282 281 279 278 277 280 281 279 278 279 280 279
288 287 287 290 293 294 291 285 279 280 278 278 273 272 273 273 275 273 273 272 272 269 278 279 275 276 280 281 280 278 280 282 277 275 275 273 277 272 268 269 269 264 263 265 269 265 266 266 261 260 266 274 276 277 278 280 280 280 281 280 281 280 280 280 280 280 281 282 281 280 279 280 280 281 283 283 282 280 279 280 281 279 278 278 278 279 279
298 297 296 290 286 282 280 280 279 275 272 271 268 270 271 271 274 273 273 273 273 277 278 283 283 284 286 285 282 282 279 283 282 279 276 271 273 272 267 265 265 266 266 269 267 262 265 264 260 267 274 276 277 277 278 279 279 280 279 280 280 280 281 281 282 282 281 281 281 281 281 280 280 281 280 280 280 279 278 278 279 278 278 278 279 278 279
293 292 287 280 281 278 278 275 280 278 273 270 268 268 268 268 271 270 271 271 277 278 281 283 282 281 278 281 280 280 281 284 284 277 275 274 272 269 267 266 266 267 271 264 263 267 264 259 265 274 277 277 279 278 278 279 280 280 281 280 280 279 279 280 281 281 281 280 280 280 280 280 280 280 279 279 280 281 280 279 278 278 278 277 278 278 279
284 280 276 274 274 277 276 270 274 272 269 271 271 268 269 269 269 268 273 276 281 281 281 280 280 279 279 283 284 283 282 279 280 275 271 273 269 267 268 266 264 267 268 265 261 259 263 265 271 274 276 277 279 278 278 279 280 281 281 281 280 280 280 281 282 281 280 281 282 280 280 281 280 280 280 279 278 278 279 280 279 278 278 277 278 278 279
279 278 276 272 271 274 272 268 270 270 272 272 273 274 274 275 277 278 279 281 281 279 281 281 280 282 280 281 280 278 278 276 275 274 273 270 268 267 268 269 270 268 261 255 259 263 264 270 274 275 277 277 278 278 278 278 279 280 281 282 283 281 282 282 281 282 282 281 280 280 281 280 280 280 281 280 279 279 278 279 278 278 278 277 277 278 279
279 279 275 272 268 271 272 269 270 271 277 277 277 277 278 278 279 280 281 282 281 283 284 282 282 282 278 275 278 276 276 276 274 277 275 271 270 272 275 270 267 263 262 260 256 254 262 272 274 276 277 277 277 277 279 280 280 281 281 281 280 281 281 281 281 282 282 281 280 280 280 281 280 280 280 280 280 280 279 278 278 277 278 278 277 277 278
278 278 273 270 268 270 272 272 276 277 278 279 278 278 278 279 279 279 280 281 281 281 282 282 280 280 279 278 277 273 271 274 274 274 276 275 275 270 265 266 264 262 261 262 263 265 270 274 276 278 280 280 277 278 279 280 281 281 281 281 282 282 281 282 282 282 282 281 281 281 281 281 281 281 281 281 280 281 280 278 278 277 278 277 277 277 277
281 277 273 268 269 273 272 273 279 278 278 277 277 277 278 280 279 279 281 280 281 282 281 281 277 277 275 275 274 274 275 278 273 272 276 271 269 265 262 258 256 262 264 266 271 273 274 277 278 277 279 280 280 280 280 280 281 281 281 281 282 282 282 282 283 283 283 282 282 282 282 282 281 281 280 280 280 282 280 278 278 278 278 278 277 276 276
279 276 277 275 273 272 275 276 278 275 276 278 279 278 277 278 278 281 281 282 281 281 281 283 282 280 278 278 272 272 270 271 273 273 269 268 267 268 265 262 260 263 261 267 271 273 276 277 278 279 279 279 280 280 280 281 280 280 281 281 281 281 282 283 283 282 283 283 282 282 282 281 281 281 281 282 282 280 278 277 278 278 278 277 277 276 276
284 281 278 276 276 273 275 273 271 272 273 277 278 278 278 279 279 280 279 282 281 278 276 275 276 277 276 275 272 271 274 277 274 270 267 266 267 268 266 265 266 268 272 276 278 278 277 277 277 278 278 279 280 281 281 281 281 281 281 280 281 281 282 282 283 283 282 283 282 282 281 282 283 283 283 282 280 279 278 278 278 278 278 277 277 277 276
283 278 277 277 279 280 280 278 277 278 279 280 279 279 279 279 278 280 281 282 280 278 275 275 278 276 275 274 276 276 277 274 271 268 268 269 270 269 266 270 277 278 278 277 278 279 280 280 279 279 280 281 282 282 282 281 281 281 281 280 280 281 281 282 283 283 283 282 282 282 283 283 283 282 282 281 280 279 279 278 278 278 278 277 277 277 277
Wind_Speed
28 29 27 27 28 31 32 30 30 27 25 9 7 4 4 5 1 4 6 8 2 4 1 1 1 1 2 3 2 1 1 3 3 0 1 0 1 0 1 3 2 3 2 1 1 0 1 0 2 2 1 1 1 3 8 6 4 5 1 2 0 4 3 4 2 2 3 4 3 2 4 4 6 5 2 1 1 0 3 2 6 7 1 1 1 1 2
28 28 28 27 29 32 32 31 30 26 21 6 4 2 2 0 0 5 8 11 4 7 2 2 3 4 5 2 3 3 1 3 4 1 3 1 3 0 1 3 2 1 2 1 1 2 1 2 2 0 1 1 3 7 9 6 2 3 4 2 2 1 1 8 3 2 2 2 2 4 4 5 4 2 2 0 2 4 2 5 1 7 3 4 7 5 2
27 27 28 27 30 32 30 30 28 25 22 9 1 1 1 0 1 1 6 11 9 5 1 1 0 2 2 2 7 9 3 2 2 0 2 2 1 0 0 0 3 1 1 2 1 4 1 1 3 1 3 2 3 7 11 10 6 5 5 3 5 5 1 3 7 7 5 4 2 3 1 2 1 1 2 3 3 4 1 2 1 4 1 3 3 2 3
27 27 28 27 29 32 30 29 29 27 24 12 3 1 2 3 2 6 6 7 8 3 1 1 1 1 3 5 3 2 4 4 6 4 4 3 2 3 2 2 1 3 4 3 5 6 5 4 1 5 4 4 3 4 5 10 4 9 7 6 4 3 3 3 4 7 10 8 6 2 3 2 4 1 3 2 2 2 5 5 4 5 4 2 1 5 2
27 27 28 28 29 31 30 28 30 30 25 14 3 4 3 2 6 2 5 6 4 2 8 10 7 5 1 3 4 6 4 3 2 7 2 6 2 2 8 5 3 4 3 1 3 3 2 6 5 4 3 3 2 8 6 7 12 13 3 7 4 4 5 2 8 7 2 3 3 0 3 3 1 5 2 2 3 1 5 1 1 3 9 0 0 1 4
26 27 28 28 29 28 28 28 30 30 28 20 3 5 5 5 1 1 1 3 3 7 9 11 11 15 9 3 2 4 7 10 4 5 3 0 4 2 4 11 7 2 1 2 4 8 3 4 3 5 2 3 6 3 8 6 7 9 2 4 4 4 3 1 3 5 5 6 6 4 6 4 3 4 3 4 5 5 4 0 1 4 2 7 3 5 5
26 27 28 27 29 27 27 30 29 29 27 17 4 7 3 4 0 1 1 3 2 3 2 6 8 12 11 0 7 8 10 10 6 2 5 5 7 6 3 6 10 9 4 4 3 4 3 4 2 2 5 3 4 4 4 2 8 5 1 3 1 5 2 1 4 6 8 9 8 7 9 3 6 8 6 3 11 6 5 4 3 2 2 6 13 10 6
25 26 27 27 27 26 26 29 27 28 25 9 11 7 3 4 3 3 6 4 4 4 1 1 4 9 10 5 10 6 8 7 8 8 8 3 5 5 5 5 5 7 10 7 5 1 2 1 2 1 1 5 4 1 1 4 5 5 1 0 1 5 1 4 3 4 4 4 5 5 7 5 5 6 7 5 8 11 6 5 4 10 9 6 10 13 6
25 26 27 27 26 25 25 26 27 26 21 8 7 2 3 1 1 0 2 5 5 3 4 3 6 4 7 6 7 7 11 6 5 6 5 6 3 5 4 4 3 3 8 8 5 1 2 3 6 4 1 0 1 2 2 1 4 6 4 3 3 5 4 2 2 6 2 1 4 5 9 10 7 3 4 6 4 7 1 4 1 2 8 5 6 7 4
24 25 26 26 25 25 25 26 27 24 15 5 2 5 2 1 1 2 2 4 6 4 5 4 2 6 2 2 4 4 9 6 3 2 5 6 6 5 5 3 2 4 10 8 6 7 5 6 8 5 6 4 4 2 3 1 1 3 1 0 2 1 8 5 4 7 3 3 2 10 9 7 4 1 1 3 4 5 5 3 5 2 3 10 8 6 4
24 24 25 25 25 24 24 25 25 22 11 7 5 3 4 3 3 4 4 6 6 6 3 6 6 2 4 6 2 3 5 9 9 3 1 5 9 8 4 8 3 2 4 4 7 6 10 8 6 1 2 4 4 3 3 4 2 3 1 1 1 1 6 5 2 6 5 4 2 2 5 2 5 2 2 2 4 7 9 2 3 3 1 0 3 7 5
23 24 24 25 23 24 24 23 25 24 12 1 2 1 1 1 3 3 4 6 1 5 5 4 3 2 4 7 3 4 6 7 6 5 2 2 3 7 9 9 5 3 3 7 8 10 7 2 1 0 1 1 2 3 4 3 6 4 1 0 1 3 4 3 2 7 7 2 2 3 3 6 3 6 1 2 6 8 14 6 4 4 5 7 10 9 8
22 23 23 24 23 23 24 23 25 25 19 4 3 5 4 0 2 3 5 7 4 5 4 2 3 1 2 3 4 4 4 3 3 4 1 3 4 6 4 3 3 4 8 11 10 5 3 1 3 0 3 6 4 7 10 10 8 7 5 4 2 1 6 3 3 4 3 3 2 3 3 2 2 3 4 5 5 2 8 9 4 4 3 2 6 5 4
22 22 23 23 23 23 23 23 24 24 23 11 5 4 4 2 2 3 2 5 3 2 1 2 6 8 8 7 3 5 3 8 6 2 4 3 3 3 2 2 5 9 9 5 2 2 1 4 2 4 3 5 3 3 1 2 5 9 10 8 3 6 4 4 3 0 5 3 3 0 1 1 3 2 1 0 0 0 1 6 1 1 1 2 5 3 3
21 22 22 22 23 22 23 23 22 24 22 15 1 2 7 6 2 4 2 6 4 1 3 4 6 5 4 4 4 6 5 4 7 5 3 2 1 1 2 6 8 9 6 0 4 4 2 1 0 0 3 2 1 2 3 1 2 5 6 5 5 3 1 3 6 1 6 7 4 2 3 1 7 5 1 1 0 0 3 5 1 1 2 0 3 4 2
20 21 22 22 23 23 23 23 22 23 23 17 4 3 5 4 1 4 3 3 5 5 7 2 2 2 1 2 2 4 2 4 4 3 6 5 3 7 3 6 8 5 3 5 2 3 2 0 2 2 2 1 1 1 1 1 1 2 4 6 8 6 6 4 4 4 4 4 6 4 7 7 5 4 1 2 1 3 3 4 2 1 0 1 2 4 0
20 21 21 22 22 22 22 22 22 23 22 17 5 3 7 7 4 2 3 4 6 4 3 2 1 2 2 4 4 4 2 2 3 3 4 5 5 4 9 9 5 5 7 4 6 4 4 4 2 2 0 1 0 0 1 1 3 6 10 6 10 9 5 4 2 2 1 6 4 3 2 1 1 2 3 3 0 3 3 2 6 3 0 1 2 3 3
19 20 21 22 22 21 21 22 22 22 21 20 6 2 3 5 3 1 5 5 5 3 3 2 3 5 6 0 1 2 1 2 3 1 1 3 2 4 5 6 10 5 4 4 3 4 3 2 3 2 1 1 0 1 0 0 2 1 3 3 4 5 4 6 2 2 2 6 0 2 2 4 3 2 4 3 3 3 5 8 4 1 1 1 3 2 2
19 20 20 21 20 20 20 21 21 22 21 21 8 1 3 5 7 5 7 4 5 3 5 2 1 2 1 1 1 0 0 0 0 2 4 5 2 3 2 3 1 4 7 3 5 3 2 1 1 1 1 4 3 0 1 3 1 1 1 3 4 3 2 1 3 5 1 1 6 2 1 3 0 3 3 3 4 4 7 2 2 3 2 2 3 2 2
19 19 19 20 20 20 20 20 21 21 21 20 7 2 3 3 5 4 3 4 1 3 3 3 2 4 1 3 5 6 4 5 1 5 2 1 5 5 2 3 4 3 6 3 3 0 3 1 1 1 2 1 1 1 3 1 1 1 0 0 2 1 2 1 1 0 2 3 4 2 1 1 3 4 2 3 3 2 4 3 0 1 1 0 0 1 1
18 18 19 19 20 20 20 20 20 20 20 20 10 2 5 3 4 4 2 5 5 4 4 2 0 1 0 1 1 4 4 4 4 4 1 3 3 2 3 1 4 2 2 2 3 2 1 2 2 0 1 1 3 2 2 1 2 2 2 1 1 0 2 0 1 2 2 1 2 2 1 3 5 1 2 1 2 6 3 4 2 1 1 1 1 1 1
17 17 18 18 19 19 19 20 19 19 19 19 11 2 4 6 3 3 1 4 5 3 2 2 0 1 2 1 3 4 2 0 0 1 2 4 4 3 3 1 0 0 0 1 3 2 3 1 0 2 2 2 3 2 0 2 0 2 2 2 2 4 2 1 2 2 1 1 3 3 0 2 4 5 5 4 4 3 2 4 3 3 2 1 1 2 1
17 17 17 17 18 18 18 19 18 18 18 18 9 4 2 6 8 5 1 4 2 1 3 3 2 2 2 1 1 3 2 1 4 2 3 3 2 2 2 3 3 0 0 1 1 2 1 1 1 1 1 1 1 1 3 2 2 1 1 2 3 2 2 3 6 2 4 6 6 3 1 2 5 5 3 5 4 2 3 4 2 2 1 2 2 0 0
17 16 16 17 17 17 18 19 18 17 18 17 7 2 3 3 5 5 5 5 3 2 3 5 5 3 2 4 5 4 1 0 1 0 0 2 2 2 2 1 1 1 1 1 3 1 2 1 0 1 1 1 1 2 2 3 1 0 1 1 2 1 0 2 4 3 2 1 2 1 3 2 2 3 2 1 2 3 3 3 3 2 2 1 0 2 2
17 16 16 16 16 16 17 18 17 17 16 16 10 2 1 3 3 5 2 0 3 3 1 3 1 2 2 4 3 2 1 0 1 3 2 5 5 3 1 1 1 1 3 1 1 3 3 2 2 2 2 1 1 1 1 2 1 1 1 1 1 1 1 7 2 3 2 1 4 2 0 1 1 0 2 2 2 2 2 1 1 2 2 2 1 2 0
16 16 16 16 16 16 16 16 17 16 16 15 7 3 3 2 5 1 5 4 3 3 2 1 2 3 3 3 3 3 1 2 3 3 4 2 2 2 3 1 0 2 2 2 2 2 1 2 2 1 2 1 1 1 0 0 1 0 3 0 2 2 1 2 1 3 1 2 1 1 2 3 2 3 2 2 1 0 1 1 2 2 3 2 2 1 2
15 15 15 16 16 16 16 16 16 15 15 12 4 3 2 1 3 6 3 1 1 2 3 0 3 6 4 3 3 3 2 3 2 3 3 3 3 3 4 3 3 3 5 3 3 3 3 2 2 1 0 0 1 1 0 0 1 1 1 1 1 1 3 1 4 4 0 4 5 5 3 2 5 5 4 3 2 2 1 0 0 0 1 0 3 2 1
14 14 15 15 15 15 16 16 15 14 14 9 2 3 1 3 3 1 2 2 3 2 1 1 1 4 2 0 3 4 3 2 2 1 2 3 4 3 4 3 2 2 2 2 5 4 2 3 1 1 0 2 2 2 1 0 1 3 3 2 0 2 3 4 3 6 2 5 7 7 4 1 3 5 4 3 2 3 2 3 2 2 1 1 2 1 0
13 13 14 15 15 16 16 15 15 14 13 6 1 1 2 0 2 3 3 1 4 4 2 1 2 3 1 2 5 5 3 4 3 2 2 2 4 4 3 2 1 4 3 3 2 1 0 1 1 0 1 1 2 1 2 1 1 1 2 1 0 1 3 2 3 5 0 1 5 5 2 1 1 2 2 2 2 3 3 3 2 2 1 1 1 2 2
13 13 14 15 16 16 16 14 14 13 11 3 3 3 2 1 1 3 3 3 2 3 2 1 2 1 2 1 2 2 3 3 4 3 3 2 3 2 1 2 1 1 2 1 1 0 1 0 1 1 2 1 1 1 2 1 1 2 3 3 4 1 2 3 3 2 0 2 4 5 3 2 1 2 0 0 1 3 2 3 3 1 1 3 3 3 2
15 14 14 15 16 15 15 14 13 11 7 2 2 2 2 1 1 1 3 3 0 3 2 1 1 3 2 0 0 3 5 4 3 3 2 1 0 1 1 1 1 1 1 0 1 0 0 1 0 1 1 0 3 1 3 2 0 2 3 3 3 1 0 1 2 1 1 4 3 3 2 3 0 2 1 1 0 1 1 0 2 3 3 2 3 3 3
15 16 16 16 16 15 14 12 12 7 2 1 2 1 1 2 2 2 3 1 0 2 1 1 2 3 1 3 1 1 1 1 1 3 1 2 2 2 2 3 0 0 1 1 0 1 0 1 0 1 0 1 4 2 2 3 2 3 2 4 3 3 1 1 0 1 2 4 5 4 1 1 1 2 1 4 3 2 4 4 3 1 3 4 4 3 4
17 16 16 16 15 15 13 11 9 5 2 4 5 3 4 5 6 5 2 0 3 1 3 3 1 0 0 1 4 2 2 2 4 5 2 1 1 2 2 3 2 2 3 2 0 0 1 1 0 1 0 1 1 1 2 2 5 5 6 6 5 3 3 1 0 0 2 1 1 2 2 2 2 4 3 3 3 3 4 4 3 1 1 3 3 4 4
17 17 17 16 14 13 11 10 6 1 3 2 2 2 1 3 3 3 2 5 3 0 2 1 0 1 2 4 2 2 2 1 2 1 1 2 0 1 1 2 2 0 3 2 2 1 1 0 1 1 1 2 1 1 1 4 5 5 3 1 1 1 1 0 1 2 2 2 1 1 1 1 1 2 2 2 2 2 2 1 2 2 1 1 4 4 4
17 17 16 15 13 9 4 3 2 2 0 1 0 3 1 6 2 0 2 0 1 1 2 1 1 1 2 3 1 3 1 1 1 0 0 3 1 1 1 1 3 3 2 1 2 1 0 1 3 1 2 1 1 1 3 5 5 2 0 2 1 4 3 0 4 4 2 0 0 0 1 3 4 2 4 3 4 3 3 3 2 1 1 4 4 5 4
17 15 13 9 2 2 1 2 3 2 2 0 2 3 8 7 2 2 2 2 1 2 2 0 1 0 2 0 0 1 0 0 0 1 1 1 3 2 2 1 1 1 0 1 1 1 0 0 0 1 1 1 4 4 6 5 5 4 5 6 7 9 7 9 4 4 2 2 2 1 3 2 4 4 4 4 3 2 2 2 1 1 2 3 5 5 3
15 12 5 3 2 1 2 0 2 1 1 4 9 11 6 3 1 1 2 1 1 2 2 2 1 3 4 2 1 4 2 2 3 2 3 3 1 2 3 2 0 2 1 1 1 0 2 0 2 1 1 2 4 6 7 5 5 4 5 6 7 5 1 1 2 5 4 1 4 1 0 3 2 1 3 3 3 1 1 2 3 3 5 6 5 5 6
9 4 3 2 2 1 0 1 0 4 9 11 7 2 2 3 0 1 2 2 2 2 3 2 1 1 0 1 1 2 1 1 2 1 2 0 1 1 0 1 1 0 2 1 3 1 1 3 0 0 3 6 6 6 6 6 6 4 4 5 8 8 5 3 5 5 2 1 3 1 0 0 2 2 3 4 4 3 5 4 4 4 4 4 5 5 5
4 2 4 3 1 0 1 2 4 13 6 1 2 0 1 1 1 1 0 0 1 1 1 1 2 1 3 1 3 1 0 1 1 2 1 2 2 3 2 1 3 1 1 2 2 1 1 2 1 2 3 4 4 4 2 4 3 4 5 5 5 6 6 4 5 5 5 5 4 3 5 5 5 4 3 4 4 4 4 4 4 4 4 4 5 4 4
6 5 1 2 1 1 3 5 10 5 1 0 2 2 0 1 2 1 0 1 1 1 0 1 2 2 4 4 2 2 1 1 1 1 1 3 0 1 1 1 1 1 1 0 4 3 1 1 1 2 5 4 4 4 2 3 3 3 3 3 4 4 5 6 5 3 4 3 2 3 3 3 4 4 5 4 4 3 4 3 4 4 4 4 4 3 4
2 1 1 0 3 2 4 6 4 1 1 1 1 1 1 1 0 0 0 1 0 1 1 0 1 0 0 1 2 1 2 2 1 2 2 0 2 1 1 0 1 1 1 1 3 2 1 1 1 1 4 3 5 5 4 2 2 1 0 1 4 5 5 4 3 3 3 2 2 2 3 3 3 4 4 4 4 4 4 4 5 5 4 3 3 3 2
1 2 2 1 3 3 4 1 2 1 1 0 2 0 0 1 1 1 0 2 0 1 1 0 1 0 1 1 1 2 1 0 1 1 1 0 0 1 1 1 2 1 1 2 1 2 2 0 1 4 6 7 6 4 3 4 2 1 1 2 3 4 4 4 4 3 4 4 4 3 3 4 4 4 4 4 4 4 4 4 5 4 4 3 3 2 0
7 4 2 1 1 1 0 0 1 1 1 2 2 1 2 2 0 0 2 1 1 1 2 1 0 1 0 1 1 0 1 0 0 1 1 1 1 2 1 1 1 0 2 2 1 1 1 1 1 6 7 7 5 5 4 3 2 2 3 2 2 2 4 5 6 5 5 4 4 4 4 4 5 5 3 3 2 1 3 3 4 3 3 2 1 1 0
2 0 0 1 0 2 1 0 1 1 1 1 2 1 1 2 3 3 1 2 1 1 1 1 1 1 2 2 1 1 1 1 3 1 0 0 1 0 0 0 1 3 0 1 1 1 3 3 6 6 5 5 6 5 4 4 4 4 4 3 2 2 3 2 1 1 1 1 1 1 1 2 3 1 2 2 3 2 4 4 4 3 2 1 2 1 1
0 2 2 1 1 1 1 2 2 2 1 1 1 1 1 1 2 1 1 3 1 4 2 1 2 3 1 1 2 1 1 1 1 1 1 0 1 0 1 2 2 1 1 2 1 2 1 2 4 3 4 5 6 5 4 3 3 3 2 0 2 4 3 5 5 4 4 4 4 3 3 4 3 3 3 2 2 2 2 4 4 2 3 3 1 1 1
2 1 1 3 3 2 1 0 0 1 1 2 1 3 2 3 2 3 5 1 2 3 1 2 1 1 0 1 1 2 0 1 0 1 1 1 1 2 3 0 1 1 2 2 1 2 4 5 4 5 4 5 5 6 4 2 1 0 1 5 6 5 6 6 5 5 5 4 3 4 4 3 4 3 4 3 1 2 3 4 3 4 3 2 3 2 1
1 1 2 1 2 1 1 1 0 1 1 1 3 4 3 4 4 5 3 0 2 4 3 1 1 1 1 1 0 2 1 0 0 1 1 0 1 2 1 1 1 0 1 1 2 4 5 6 5 5 5 5 5 4 4 4 3 5 6 5 4 4 4 5 5 6 5 3 3 4 4 4 4 4 2 2 4 3 2 3 4 4 4 5 4 2 1
0 1 1 1 2 1 0 1 1 1 1 2 1 2 2 1 2 4 3 1 3 2 2 1 1 1 1 1 1 1 1 0 0 2 1 1 1 1 1 1 1 1 2 2 5 5 5 4 4 5 6 5 3 3 4 5 5 4 4 5 5 5 5 6 6 7 5 5 6 5 5 4 4 4 4 5 4 5 3 3 4 4 4 1 2 2 2
1 1 0 1 1 2 1 1 2 2 2 2 1 0 1 1 3 5 6 1 2 3 0 1 1 1 2 0 0 1 1 0 1 2 0 1 1 2 1 2 0 1 4 5 6 5 6 6 6 4 4 4 4 4 4 4 5 5 5 6 7 8 6 6 8 7 5 5 5 5 5 6 5 4 4 2 3 6 4 2 4 4 4 4 4 3 3
1 1 1 1 1 2 1 0 1 2 3 3 1 1 1 1 3 6 2 0 1 1 1 0 1 1 1 0 1 0 1 1 1 0 1 1 2 1 1 1 3 4 2 3 4 6 7 6 3 3 5 5 5 5 5 6 5 6 6 6 6 4 6 7 7 6 6 7 7 7 6 4 4 5 5 7 6 2 1 2 4 4 4 4 4 4 4
0 1 2 2 3 3 2 1 0 2 3 4 3 4 1 2 2 4 1 0 1 2 1 1 1 1 0 1 1 0 2 1 1 2 3 3 2 2 3 3 5 6 7 6 5 5 5 5 4 5 5 5 6 6 6 6 6 6 6 6 6 6 5 5 6 6 6 7 6 5 4 6 8 7 7 3 2 2 1 2 4 4 5 5 4 4 4
1 0 2 3 2 3 2 1 0 5 6 5 4 5 3 2 4 4 1 1 1 1 3 1 1 1 1 2 3 2 0 1 1 0 1 3 2 2 4 6 7 6 7 6 6 5 5 5 5 6 7 7 7 7 6 4 5 5 5 6 5 5 6 6 6 6 6 5 5 6 7 7 6 4 2 3 3 2 3 4 4 5 5 5 5 5 4
Wind_Direction
356 352 348 345 345 347 346 346 346 348 350 2 352 339 18 40 14 269 340 351 149 52 67 293 63 159 236 287 294 274 312 201 228 129 318 310 253 291 189 219 185 257 199 259 106 99 168 106 236 217 95 147 167 315 7 360 8 91 33 53 278 100 77 66 4 333 308 304 292 326 316 76 54 26 65 60 35 74 169 175 179 128 202 71 26 67 230
356 352 350 346 348 349 348 346 345 346 358 330 306 51 93 234 305 328 347 15 71 75 87 342 321 317 326 25 300 341 258 26 352 109 27 51 338 61 284 345 73 295 54 61 84 319 129 356 63 2 82 79 333 24 8 34 280 89 214 134 250 98 300 113 97 24 338 343 350 354 330 48 85 89 339 46 93 63 133 105 48 96 209 172 124 191 247
356 354 351 347 350 351 349 346 343 345 351 357 144 50 205 358 275 333 320 10 23 63 286 10 221 311 11 338 15 352 359 8 341 139 36 353 11 3 309 183 314 23 41 73 42 33 96 130 22 68 2 353 343 29 49 36 36 357 332 109 132 86 176 94 135 147 164 181 232 230 212 145 192 110 24 31 96 127 104 113 18 114 238 100 129 198 253
357 355 353 350 352 353 351 348 346 345 351 3 96 185 51 27 57 321 347 18 26 42 239 24 323 58 22 36 346 9 329 324 10 57 84 39 51 69 291 327 58 44 38 29 27 14 6 85 7 39 344 329 342 344 352 69 25 350 58 9 62 122 76 79 152 161 181 194 205 242 117 65 96 175 80 83 55 34 97 94 87 165 176 75 221 163 122
358 356 355 354 355 355 354 350 348 347 345 1 125 26 93 123 56 346 343 343 45 320 27 23 25 13 300 80 348 357 342 286 341 16 80 6 33 31 47 2 39 339 50 42 57 14 347 13 77 2 332 276 282 308 307 61 23 359 10 358 91 63 70 8 92 56 357 244 230 246 110 119 41 121 121 36 48 46 82 109 191 165 108 270 286 145 91
359 357 356 357 357 357 355 354 352 350 345 349 80 41 4 59 311 114 241 102 306 358 8 7 16 16 19 62 354 12 17 30 23 322 30 333 35 87 350 32 38 336 257 91 62 344 13 30 21 320 344 339 333 17 10 56 5 48 348 342 95 126 100 266 92 40 38 30 20 23 67 49 68 10 44 68 14 47 94 160 120 109 118 189 175 107 89
0 359 358 359 359 356 357 359 355 351 346 344 68 68 330 108 234 210 317 80 358 72 207 349 20 24 7 82 14 24 22 30 11 2 311 21 7 35 79 6 4 14 22 100 96 6 63 7 332 49 324 19 332 18 335 346 27 39 71 12 119 89 55 67 83 74 34 15 19 5 76 56 40 19 1 65 84 70 81 72 6 75 67 132 117 94 96
1 1 359 360 359 357 356 1 359 353 346 333 63 51 48 9 23 334 358 82 58 9 133 352 23 47 354 30 357 7 10 24 8 20 23 14 353 8 73 355 350 26 39 50 80 34 108 124 6 296 52 326 35 24 141 290 327 33 29 320 321 96 284 138 96 64 26 5 47 41 75 87 65 17 27 25 86 69 53 98 90 86 65 60 99 106 88
3 2 1 1 360 357 357 2 4 359 350 41 48 56 52 253 164 245 64 33 348 343 16 37 63 60 349 35 339 6 360 2 351 65 46 59 16 353 349 316 316 11 46 55 73 20 279 236 235 239 192 347 283 60 277 78 325 349 356 17 315 73 167 68 95 103 150 213 118 113 98 86 94 57 13 7 20 93 348 65 338 110 146 137 99 83 126
4 3 2 2 1 358 357 4 8 6 355 96 46 34 318 42 308 68 108 74 342 16 322 12 39 45 319 340 327 1 335 335 7 57 7 30 44 6 343 310 99 15 29 20 349 323 293 261 254 237 226 239 256 240 255 342 300 319 341 242 48 40 136 143 126 109 194 175 188 136 120 91 70 260 203 126 77 103 90 40 39 22 134 139 151 178 195
5 4 3 3 2 358 357 2 9 13 18 44 43 7 349 19 330 349 52 81 350 10 7 22 50 14 325 333 321 345 349 4 15 70 336 353 359 356 9 27 64 72 41 330 316 282 271 264 271 235 222 229 253 271 282 298 223 214 329 35 70 61 127 144 145 124 184 180 211 341 76 140 217 308 303 181 164 161 117 58 10 356 63 200 167 131 140
6 6 4 3 3 359 358 359 6 14 28 46 143 93 336 106 88 87 78 83 359 336 51 56 2 323 17 326 338 5 359 2 351 331 57 344 321 346 18 23 57 25 329 323 326 308 278 202 30 67 166 292 252 340 30 36 9 9 351 222 95 79 73 115 131 102 166 159 80 80 185 235 313 312 236 160 106 101 105 108 66 37 55 89 96 105 115
6 6 4 4 2 0 359 358 3 9 14 25 70 32 322 86 132 105 106 104 47 352 22 25 348 336 289 336 26 359 330 303 319 332 78 35 347 9 17 33 359 275 325 315 324 350 57 286 313 78 310 345 14 64 44 33 20 4 24 52 105 92 105 164 47 104 73 78 111 152 241 272 323 358 48 78 116 112 87 66 23 30 26 71 98 114 121
5 5 4 4 3 1 359 359 0 6 8 13 36 14 330 19 74 66 92 96 36 313 216 329 349 356 1 9 359 320 314 7 337 8 30 351 360 339 305 1 307 292 301 297 358 37 355 41 24 13 327 8 11 16 10 69 46 35 15 355 19 133 103 88 99 44 148 155 102 177 7 7 72 81 195 124 61 51 117 141 221 342 345 80 122 104 98
5 5 4 2 2 0 359 359 359 4 5 6 88 343 23 21 74 124 195 88 135 48 49 47 313 308 332 341 12 8 26 335 10 344 301 288 16 297 268 308 318 315 313 8 3 38 102 94 36 38 328 42 233 252 332 356 323 55 40 21 42 18 130 232 126 253 116 124 72 15 26 266 237 233 288 357 279 220 180 103 39 337 326 99 134 122 126
3 4 3 2 1 0 358 358 358 3 5 1 59 14 42 13 86 95 108 133 122 38 341 303 240 253 302 322 340 56 349 352 330 304 345 346 303 331 315 327 320 325 13 66 65 78 25 81 233 102 215 199 283 63 287 1 351 309 44 38 46 30 69 94 135 145 75 70 129 187 163 242 206 191 250 282 303 152 136 68 189 250 154 50 130 122 183
4 3 3 2 1 1 358 358 358 1 3 9 353 6 29 1 18 62 81 45 72 123 237 266 128 112 76 350 13 18 10 31 333 29 347 341 316 292 304 334 310 28 21 80 13 50 32 42 67 152 227 218 66 201 330 44 10 339 339 7 28 37 5 11 57 67 143 147 120 202 192 150 130 245 276 274 207 149 63 93 261 213 56 124 126 138 161
6 5 5 4 4 2 359 358 358 359 1 2 24 34 346 356 20 118 58 94 104 48 325 339 41 27 32 351 24 291 54 12 24 52 170 278 326 359 328 349 351 336 48 83 11 62 49 65 55 67 79 348 245 52 102 47 45 336 331 356 8 0 353 45 157 145 66 95 343 12 319 282 262 277 289 324 156 97 130 203 226 198 96 116 159 166 186
5 6 6 5 4 2 359 358 358 359 1 3 357 64 359 9 4 70 114 72 75 80 291 292 158 100 189 80 123 153 120 115 226 78 327 2 359 312 274 260 36 350 4 80 51 60 79 314 5 59 80 326 25 120 332 43 304 328 40 25 10 13 73 336 67 38 66 163 109 188 215 238 317 294 271 273 111 164 219 230 210 155 158 159 157 172 202
3 4 5 5 4 2 0 358 359 358 360 3 26 90 266 334 11 40 96 103 92 86 325 351 8 46 323 76 31 28 3 20 50 104 78 321 292 360 35 4 331 46 356 48 46 307 94 13 254 1 27 359 327 134 55 29 44 29 55 300 115 262 88 356 83 142 53 46 74 45 129 267 33 302 333 24 123 233 171 141 158 179 165 147 240 184 219
360 0 1 2 2 2 359 359 358 358 358 0 12 49 353 336 22 24 82 128 113 77 345 299 83 327 126 94 178 142 119 74 22 32 297 222 267 82 87 206 271 8 5 50 61 338 46 336 341 350 220 125 286 51 161 178 2 4 79 118 106 120 85 42 294 182 151 90 120 190 219 272 308 143 145 291 125 139 148 121 91 72 117 195 266 299 267
356 358 358 359 359 359 358 359 358 357 358 359 5 57 34 324 349 6 54 94 97 109 164 270 198 252 254 222 180 168 130 147 215 183 23 12 352 84 161 116 275 104 323 116 31 5 0 258 3 47 22 318 11 101 121 71 55 284 335 55 41 331 146 179 164 345 116 187 173 149 90 273 336 57 92 85 83 103 123 96 129 128 275 161 124 288 357
355 356 355 355 355 356 355 357 357 356 357 360 14 74 31 325 340 343 73 54 357 21 2 6 356 340 347 324 196 184 195 174 119 68 129 102 3 10 54 39 351 228 343 106 116 150 208 102 348 156 60 23 111 30 17 124 178 359 55 330 156 6 83 58 80 53 97 45 54 74 53 45 48 43 56 90 79 31 95 125 116 254 256 152 191 223 313
352 353 352 351 350 351 352 354 357 356 356 358 22 51 339 338 320 356 19 67 100 86 348 6 58 337 283 300 315 344 15 154 280 35 160 122 94 326 324 260 213 23 16 283 181 109 217 119 221 134 98 254 79 60 95 31 29 183 72 349 336 263 2 56 100 162 66 245 206 253 154 125 154 130 122 133 147 174 168 171 195 198 160 128 229 152 184
345 348 348 347 346 346 348 351 354 354 355 358 357 26 170 6 0 22 87 58 360 84 132 313 338 232 269 269 253 306 293 133 76 95 61 64 114 128 129 276 184 54 318 315 83 51 38 71 15 47 89 287 107 331 241 109 321 106 81 277 30 353 121 73 77 76 102 229 176 214 313 323 336 124 178 165 162 112 106 177 186 169 155 146 174 133 72
340 341 343 342 341 341 343 347 350 353 352 358 22 58 70 9 308 68 85 73 104 105 93 310 281 312 325 18 41 276 292 38 54 55 66 118 150 149 153 175 41 37 105 89 78 93 94 54 76 100 98 323 92 126 77 168 179 107 123 201 206 229 40 147 155 82 31 46 39 6 45 351 312 303 288 247 256 175 58 64 112 123 147 123 79 102 180
336 336 336 337 335 337 338 340 347 348 350 357 22 45 89 27 354 42 59 344 98 340 32 6 279 302 3 352 277 338 7 21 28 53 66 38 66 68 71 64 36 6 45 16 41 118 67 101 90 27 147 270 68 109 166 12 53 53 37 292 324 55 64 181 68 82 80 183 201 146 128 257 248 248 248 270 244 166 155 43 185 247 223 162 122 65 61
334 333 330 330 331 333 333 335 341 345 346 357 35 64 65 75 345 12 105 117 102 174 171 253 323 283 318 223 309 331 325 40 85 76 49 33 30 49 73 82 83 44 9 54 5 13 26 52 344 229 185 295 53 339 30 167 61 33 11 311 265 90 186 142 140 159 217 238 201 177 146 168 228 205 225 232 216 142 150 211 239 265 244 167 134 120 330
333 330 326 326 326 327 328 329 334 341 344 1 42 46 0 337 325 5 51 88 104 97 97 230 292 12 67 238 334 343 340 43 53 66 42 20 47 41 84 71 100 141 91 77 106 112 121 257 192 120 5 199 99 281 41 3 46 219 241 264 197 255 154 160 186 153 299 222 176 172 127 163 186 237 233 239 160 133 197 254 242 244 250 153 164 185 190
332 327 323 323 320 321 322 323 330 337 347 28 47 47 38 324 330 40 5 49 102 120 83 59 69 223 302 354 311 307 316 352 30 44 31 14 21 39 113 99 87 84 109 145 150 353 241 204 295 283 284 326 117 168 76 169 100 249 265 269 248 286 251 254 166 72 245 186 161 180 157 188 222 198 234 234 162 157 178 239 218 204 243 184 197 224 229
331 326 324 321 316 315 315 317 325 334 0 64 75 51 43 48 306 284 10 39 101 106 124 108 226 281 356 293 154 327 339 345 353 12 12 4 70 40 316 85 61 122 36 6 37 223 131 353 21 320 337 108 118 96 165 137 270 310 264 237 245 244 224 200 222 240 147 108 108 129 106 86 74 94 48 120 257 197 192 157 197 196 206 175 215 200 236
326 323 319 317 314 312 309 310 318 340 43 75 100 154 179 188 222 267 342 13 94 54 67 45 345 11 287 314 300 265 355 14 32 5 354 15 5 8 9 48 148 25 129 138 197 78 260 220 126 287 73 14 70 98 80 86 153 243 257 254 249 228 251 273 98 102 82 133 102 49 28 291 212 165 204 203 213 200 178 186 203 222 210 197 214 211 213
323 319 316 313 311 307 305 304 311 322 253 233 236 247 244 259 273 283 282 65 47 102 123 87 137 232 14 257 317 340 22 18 7 21 352 333 334 14 13 360 29 45 359 84 326 265 208 134 159 50 282 26 104 111 121 171 213 233 216 210 208 204 214 236 313 354 148 202 114 152 216 212 240 230 202 161 176 174 178 183 208 141 119 163 216 237 251
320 317 315 312 306 306 302 304 322 283 21 37 68 46 332 3 37 109 75 77 102 151 77 108 52 11 263 307 82 280 22 69 291 34 359 308 287 55 266 17 340 90 322 54 269 69 331 55 213 231 320 27 33 82 287 261 244 258 282 261 164 104 84 65 273 218 228 220 233 179 184 193 110 88 99 126 176 221 217 207 149 183 211 221 244 238 238
318 316 313 311 307 297 316 12 41 48 85 343 251 256 251 340 286 14 55 95 78 344 27 12 104 67 345 359 44 271 310 68 330 300 144 278 28 38 325 52 318 62 292 98 41 59 333 253 176 88 237 305 44 221 247 254 277 263 196 153 142 111 75 78 265 228 234 304 90 27 114 131 119 140 184 196 196 203 193 213 222 205 259 254 249 258 249
319 317 316 317 19 92 70 53 56 48 25 333 253 284 324 336 38 79 98 97 124 153 92 249 68 200 146 166 324 283 287 30 324 323 222 275 345 13 85 106 16 270 252 63 226 10 229 270 81 285 278 65 225 193 230 211 233 225 197 192 187 170 184 189 198 169 134 70 79 117 115 152 169 199 198 198 195 204 211 218 278 189 235 263 265 265 264
326 323 348 44 45 41 30 223 296 96 212 241 273 294 318 88 18 50 13 27 354 93 140 157 78 228 163 222 259 277 54 349 334 6 341 26 289 290 37 40 221 296 28 1 7 33 267 30 104 109 181 177 245 227 227 215 207 190 204 205 193 201 191 150 163 132 120 68 46 58 126 180 216 198 174 195 211 177 174 251 249 249 250 253 262 267 258
329 20 67 27 45 46 358 332 308 291 308 298 309 15 4 22 86 341 356 36 281 54 345 67 193 241 358 92 237 253 68 288 52 47 311 241 27 314 24 97 238 176 341 285 257 186 59 41 31 164 262 253 260 267 252 236 235 227 200 184 189 193 181 149 137 115 115 322 323 280 270 170 234 237 175 214 207 216 227 231 251 245 244 256 261 266 288
56 46 44 31 90 153 189 247 319 327 313 262 41 81 309 7 60 29 331 294 14 24 296 106 244 172 133 178 275 293 167 140 30 32 42 278 94 313 15 33 300 60 329 13 301 20 330 336 351 24 293 293 334 289 261 245 247 219 207 205 181 170 155 169 166 146 171 194 211 204 179 191 200 224 209 212 231 239 246 256 268 269 253 257 267 275 262
28 36 15 7 74 251 272 299 335 326 52 43 328 100 154 323 89 297 303 46 341 290 53 291 216 171 188 192 199 293 338 39 350 295 215 308 90 147 266 90 269 82 287 58 253 22 101 293 285 41 295 284 264 280 304 260 248 240 203 185 148 157 165 162 193 198 172 207 202 213 201 199 190 181 182 203 212 247 277 270 255 265 265 262 262 256 252
23 52 21 21 263 293 300 310 335 55 65 42 6 5 65 9 353 189 60 49 106 239 200 177 353 2 2 68 120 210 287 89 135 133 118 241 250 84 48 255 243 73 305 256 277 65 68 66 347 198 240 239 258 287 315 320 288 295 230 162 164 164 172 180 189 181 173 199 204 214 209 194 179 191 191 193 196 216 234 259 285 282 275 271 262 244 234
220 218 210 218 276 291 317 353 62 48 12 107 116 309 275 230 263 12 130 92 319 267 323 158 333 173 297 191 216 143 21 159 128 99 88 319 304 120 222 318 7 95 259 239 104 52 75 219 316 293 261 261 268 291 293 284 305 294 262 191 184 168 171 183 202 219 201 199 210 197 179 174 188 197 200 198 216 230 247 264 270 269 245 246 251 273 265
299 270 134 311 7 336 62 54 311 97 96 4 36 31 345 55 351 95 298 283 273 101 274 185 209 176 14 67 35 111 176 237 343 320 72 237 288 55 84 14 49 331 237 320 65 50 38 233 241 252 257 275 295 309 288 238 238 235 245 219 215 217 196 195 198 204 201 194 198 196 182 182 203 213 199 185 191 244 255 240 237 254 263 252 245 275 282
164 103 55 343 51 287 74 50 289 41 14 65 89 95 322 16 314 5 11 291 288 323 300 359 299 85 264 338 118 334 2 6 61 79 21 337 86 323 49 236 226 241 77 37 36 191 229 225 211 240 278 303 300 295 279 240 227 223 244 233 185 183 205 240 214 147 190 198 212 233 175 195 226 219 163 193 191 231 280 292 259 223 224 221 260 277 286
90 356 28 17 27 276 61 308 326 106 82 301 114 151 148 140 256 184 215 246 137 280 327 64 142 94 101 297 48 18 126 232 316 92 252 68 23 23 106 258 252 25 50 273 330 328 350 283 272 281 282 291 293 300 287 244 232 237 232 207 209 197 183 198 213 204 202 190 202 180 202 222 222 249 241 226 207 197 208 257 262 206 202 199 230 283 309
63 132 62 64 354 326 99 178 342 40 307 147 138 199 168 236 201 242 252 223 302 290 297 229 183 101 168 241 135 224 109 105 33 243 168 74 97 276 244 216 104 37 359 45 31 241 223 239 267 271 266 265 281 302 312 252 182 133 200 237 233 208 208 203 209 204 206 200 197 182 208 202 213 229 251 256 219 225 227 246 243 208 186 173 218 224 272
49 11 82 108 98 274 88 109 282 190 174 197 211 177 183 218 222 231 265 316 270 257 315 21 97 210 197 289 292 341 22 53 187 268 79 54 200 261 24 93 270 220 143 288 257 253 266 255 246 248 258 264 281 291 300 268 215 176 206 239 275 256 220 212 210 210 219 192 182 198 210 213 221 226 240 307 288 256 240 242 236 202 175 203 214 202 203
77 243 86 90 243 208 90 256 224 300 282 179 219 207 246 290 341 324 290 248 247 302 302 356 328 337 328 306 82 211 249 357 329 296 171 213 34 37 11 28 291 252 179 174 234 223 236 251 237 245 247 237 232 261 278 271 271 244 220 222 233 240 228 215 216 219 200 192 201 206 211 215 218 221 220 230 254 282 269 240 220 197 190 170 134 164 170
136 116 122 197 197 167 224 247 41 344 284 308 310 31 293 355 275 267 282 334 4 349 221 175 199 122 264 229 95 18 292 196 120 247 54 30 119 222 149 228 305 316 262 185 227 228 226 238 240 236 262 286 276 240 240 238 244 249 237 228 228 228 222 218 222 216 201 200 202 203 212 214 208 216 230 234 253 270 258 219 195 187 183 176 177 184 192
63 342 22 75 5 318 236 105 75 295 312 329 349 290 216 217 266 280 240 331 283 1 14 16 113 92 262 35 307 337 259 257 182 336 67 226 209 219 78 295 229 194 256 238 227 245 245 247 257 276 262 252 266 267 267 266 241 239 241 232 235 225 216 217 223 210 203 203 205 210 210 197 205 214 214 223 225 207 164 175 196 189 193 191 176 184 192
347 138 233 184 170 218 150 250 196 251 290 277 274 264 186 242 227 269 252 133 39 48 42 220 249 108 90 39 69 327 256 181 117 198 166 207 199 139 185 206 239 214 231 229 224 242 246 244 222 241 266 268 263 265 254 248 245 238 233 231 231 225 227 219 222 214 213 214 212 205 201 211 215 211 221 207 157 144 161 225 212 203 193 189 189 190 197
103 6 270 280 241 225 197 153 145 212 231 239 242 249 162 253 242 247 222 119 73 136 262 219 107 106 102 199 221 205 336 31 240 30 344 271 170 162 217 207 239 231 229 251 268 247 234 240 223 226 235 245 257 264 268 259 249 251 241 233 225 219 217 215 213 214 212 207 203 209 222 226 221 215 183 167 173 173 203 235 221 206 202 192 196 203 209